Wind_Speed
56 56 55 55 55 55 55 55 55 55 55 55 55 55 55 55 55 54 54 54 54 54 54 54 54 54 54 54 53 53 53 53 53 52 52 53 54 54 54 55 55 55 56 56 57 57 58 58 58 59 59 60 61 61 62 62 62 62 63 63 63 63 63 63 64 64 65 65 65 65 64 64 64 64 64 64 64 64 64 63 63 62 62 61 61
59 59 59 58 58 58 58 58 58 58 58 58 58 58 58 58 58 58 57 57 57 56 56 56 56 56 56 56 56 56 56 56 56 55 55 56 57 57 58 58 58 59 59 60 60 61 61 61 62 62 63 63 64 64 65 65 65 65 66 66 66 67 67 67 67 68 68 69 69 69 69 69 69 68 68 68 68 68 68 68 67 67 66 66 66
62 62 62 61 62 62 62 62 62 62 62 61 61 61 61 61 61 61 61 60 60 59 59 59 59 59 59 59 59 59 59 59 59 58 58 59 60 61 61 61 61 62 62 63 63 64 64 64 65 65 65 66 66 67 67 67 68 68 69 69 70 70 70 71 71 72 72 72 72 72 73 73 73 73 72 72 72 72 72 72 72 71 71 71 70
64 65 65 64 65 65 65 65 66 66 66 65 65 64 64 64 64 64 64 63 63 63 62 62 62 62 62 62 62 62 62 62 62 62 63 62 63 64 64 64 64 65 65 65 66 66 67 67 67 68 68 69 69 69 70 70 71 71 71 72 72 72 73 73 74 75 75 75 76 75 76 76 76 77 76 76 76 76 75 75 75 75 75 75 75
67 67 67 67 67 67 67 68 69 69 70 69 69 68 68 67 67 66 66 66 66 66 66 66 65 65 65 65 65 66 66 65 65 66 67 66 66 67 67 67 68 68 69 68 69 69 70 70 71 71 72 72 73 73 73 74 74 75 75 75 76 76 76 76 77 77 78 78 79 79 79 79 79 79 80 80 79 79 79 79 79 79 78 78 78
69 69 69 69 69 69 69 69 71 72 73 73 72 72 71 70 70 70 69 69 69 69 69 69 69 69 68 69 69 69 69 69 69 70 70 70 70 70 70 70 71 72 72 72 73 73 73 73 74 75 75 76 77 77 77 78 78 79 79 79 80 80 80 80 81 81 81 81 81 82 82 82 83 83 83 83 82 82 82 83 82 82 82 82 81
70 71 71 71 71 71 71 71 72 74 75 76 75 75 74 74 73 73 73 72 72 72 72 72 72 72 72 72 73 73 72 72 73 73 73 73 73 73 73 73 74 75 75 75 76 75 76 76 77 77 78 79 80 80 80 81 82 82 83 83 83 84 84 85 85 85 85 86 86 86 86 86 86 86 86 86 86 86 86 86 86 86 86 86 85
73 73 73 74 74 74 74 74 75 76 77 78 78 77 76 76 75 75 75 74 74 74 74 74 74 74 73 74 75 75 74 75 75 75 75 75 76 76 76 76 76 76 77 77 77 77 77 77 77 78 79 80 80 81 81 82 83 84 84 85 86 86 87 87 87 88 88 89 89 89 89 89 89 90 90 90 90 90 90 90 90 89 89 89 89
75 75 75 76 77 77 77 77 77 78 79 80 80 80 79 78 78 77 77 76 76 76 76 76 76 76 76 76 77 77 76 76 77 77 77 77 77 78 78 79 79 79 79 80 80 80 80 80 80 80 81 82 84 84 85 85 86 86 86 87 87 88 88 88 89 89 90 90 91 91 91 92 92 93 94 94 94 94 94 94 94 94 94 93 93
77 78 78 79 80 80 80 80 80 80 81 82 82 82 82 81 81 80 80 80 80 80 79 79 79 79 79 79 79 79 78 79 79 79 80 80 80 81 81 82 83 83 83 84 84 85 85 86 86 86 87 88 89 90 91 90 90 90 91 91 91 91 91 91 91 92 93 93 94 94 94 95 95 96 96 97 98 98 98 98 98 98 98 97 97
80 81 82 82 82 82 82 82 82 82 82 83 83 83 83 83 83 83 83 82 82 82 82 82 82 81 81 81 81 81 81 81 82 82 83 83 84 84 85 85 86 87 87 88 89 89 90 91 92 92 93 93 93 95 96 96 96 96 97 97 97 98 98 99 99 99 100 100 100 100 101 101 101 101 101 101 102 102 102 102 102 102 102 101 101
84 84 84 83 83 83 83 83 83 83 83 83 84 84 84 84 84 84 83 83 83 84 84 84 84 84 83 83 84 84 84 84 85 86 86 87 87 88 88 88 89 90 90 91 92 93 94 95 96 96 97 97 97 98 100 101 101 102 103 103 104 104 105 106 106 107 107 107 107 107 108 108 108 108 109 109 109 109 108 108 108 107 107 106 106
87 86 85 84 84 84 84 84 84 84 84 85 85 85 85 85 85 85 85 85 85 86 86 86 86 86 86 86 87 88 88 88 88 89 90 90 91 91 91 91 92 93 94 95 95 96 97 98 99 100 100 101 101 101 103 104 105 106 107 108 109 109 110 110 111 111 112 112 112 112 113 113 114 114 114 115 115 115 116 116 115 114 114 113 112
87 86 84 84 84 85 85 85 85 85 85 86 86 86 86 87 87 87 87 87 87 87 88 88 88 88 88 89 89 91 91 91 91 91 92 92 92 93 94 94 95 96 97 98 99 100 101 101 102 103 104 105 105 106 107 109 110 111 112 113 114 115 115 115 115 116 116 116 117 117 117 118 118 118 119 119 120 120 121 121 121 121 120 120 119
88 87 86 86 86 86 85 85 85 85 85 85 86 86 86 87 87 88 88 88 89 89 89 90 90 91 91 91 91 92 93 93 92 93 93 94 95 96 97 98 98 99 101 102 103 104 105 105 106 107 109 110 110 111 112 113 114 115 116 117 119 120 120 120 120 121 121 121 122 122 123 123 123 123 124 124 124 124 124 125 125 125 125 125 125
88 88 88 88 87 86 85 84 84 84 84 84 85 85 85 86 86 86 87 88 88 89 90 90 91 92 92 92 93 93 94 94 95 95 96 98 99 100 101 102 102 103 104 105 106 107 108 109 110 111 112 113 114 115 115 117 118 118 119 120 121 122 123 124 124 125 125 126 126 127 127 128 128 128 129 129 129 129 129 129 129 129 129 129 129
85 86 86 86 86 85 85 84 84 83 83 83 83 84 84 84 85 85 86 86 87 88 89 90 91 92 93 94 94 95 96 97 98 99 100 101 102 102 103 105 106 106 107 108 110 111 111 112 113 114 115 117 117 118 119 120 120 121 121 122 123 124 125 126 127 128 129 129 130 130 131 131 132 132 133 133 133 133 134 134 134 134 133 133 133
82 83 83 84 85 85 85 84 83 83 83 83 84 84 85 85 86 87 87 88 89 90 91 93 94 94 95 96 97 97 98 99 99 100 101 102 103 103 104 106 108 109 110 111 112 113 114 115 115 116 118 119 119 120 121 122 122 122 123 124 125 126 126 127 128 129 130 131 132 132 133 134 135 135 136 136 137 137 137 137 137 137 137 137 137
80 82 83 84 85 85 85 84 84 84 84 84 85 86 87 88 89 90 91 92 93 93 94 95 95 96 96 97 97 98 98 99 100 101 102 103 104 105 105 107 109 110 112 113 114 115 116 116 117 118 120 120 121 121 122 122 123 123 123 124 125 125 126 127 128 129 130 131 132 132 133 133 134 135 136 137 137 138 139 139 139 140 140 140 140
81 83 84 85 85 85 85 84 85 85 86 86 88 89 90 91 92 93 93 94 94 94 95 95 96 96 97 98 99 99 100 101 101 102 103 104 106 108 108 110 111 112 114 115 116 117 117 118 119 120 122 122 122 123 123 123 123 124 124 125 126 126 127 128 129 129 130 131 131 132 132 132 133 134 134 135 135 136 137 138 138 139 140 141 142
81 82 83 84 84 84 84 84 85 86 87 89 90 91 92 93 93 93 93 94 94 95 96 96 97 98 99 100 101 101 102 102 103 104 105 106 107 109 111 113 115 116 116 116 117 118 119 120 121 122 123 124 124 125 125 125 126 127 127 128 128 129 129 130 130 131 131 131 132 132 132 132 132 132 132 132 133 134 134 135 135 136 137 139 140
81 82 83 84 84 84 85 86 87 88 89 90 91 91 92 92 92 93 93 94 95 96 97 98 98 99 100 101 101 102 103 104 106 107 108 109 109 111 112 114 115 117 118 118 119 120 121 122 123 125 126 127 128 128 129 129 130 130 130 130 131 131 131 131 131 131 131 131 131 131 131 131 130 130 130 130 130 130 131 131 132 133 134 135 136
79 80 82 84 84 84 84 85 86 87 88 88 89 90 90 90 91 92 93 95 96 97 98 99 99 100 101 102 103 104 106 107 109 110 111 111 112 113 114 115 115 117 118 120 121 123 124 125 126 128 129 130 131 132 132 132 132 133 132 132 131 131 130 130 130 129 129 129 129 129 128 128 127 126 126 126 126 126 127 127 128 128 128 129 130
76 77 79 80 81 82 82 83 84 85 85 85 86 86 87 88 89 91 93 96 97 98 99 100 101 102 102 104 105 107 109 110 112 113 114 114 114 115 115 116 117 119 120 121 123 125 127 128 129 130 131 132 133 134 134 134 134 133 133 132 131 130 129 128 128 127 126 126 126 125 125 124 123 123 123 123 123 123 124 124 124 125 125 125 126
76 75 76 78 80 81 81 82 83 83 83 83 84 85 87 89 91 93 95 97 98 100 101 101 102 102 104 106 108 110 112 114 115 115 116 116 117 117 118 119 120 121 123 124 126 128 129 130 131 132 133 133 134 134 134 134 134 133 133 132 130 129 128 126 125 124 123 123 123 122 122 122 122 122 122 122 122 122 122 122 122 122 123 123 124
77 77 78 80 81 82 83 83 83 83 84 85 86 88 90 92 94 95 96 98 99 100 101 102 103 105 107 110 112 114 115 115 116 117 117 118 119 120 121 122 123 124 125 127 128 130 131 132 133 133 134 134 134 134 133 133 132 132 131 130 128 127 125 124 123 122 123 123 124 124 123 123 124 124 124 123 123 122 122 121 121 121 121 122 123
78 79 80 81 82 83 84 84 85 85 86 88 89 91 92 94 95 96 97 99 100 101 103 105 107 110 111 113 114 115 115 116 117 118 120 122 123 124 124 125 125 126 128 129 131 132 133 134 134 134 134 134 134 134 133 132 131 130 128 127 125 124 124 123 123 124 125 126 127 127 127 127 128 128 127 126 126 124 123 122 121 121 122 123 124
75 76 78 79 80 81 82 84 85 87 89 90 91 92 93 95 96 98 99 100 102 104 106 108 110 111 112 113 114 115 116 118 120 122 124 125 126 127 128 128 128 128 129 130 132 133 134 135 135 135 135 135 134 133 132 131 129 128 126 125 124 124 124 125 126 126 127 128 129 129 130 130 131 132 132 131 130 129 127 126 124 123 124 125 126
75 75 76 77 78 80 83 86 88 90 91 91 91 92 94 96 97 98 100 101 103 105 106 108 109 111 113 114 116 117 119 121 124 126 127 128 129 129 130 131 131 130 130 130 131 133 135 135 135 135 134 133 132 131 130 129 128 127 126 126 126 126 127 127 128 128 129 129 130 130 131 132 132 134 135 135 134 133 131 130 129 128 128 128 128
77 77 78 79 81 83 86 88 90 90 90 91 91 93 95 96 98 99 100 102 104 105 107 109 111 113 115 117 119 121 123 125 127 128 128 129 130 131 132 132 133 133 132 131 132 133 134 134 134 133 132 131 130 129 128 128 128 129 128 128 128 129 129 130 130 131 131 131 132 132 132 132 133 134 136 136 136 135 134 133 132 132 131 130 130
84 84 84 84 86 87 89 90 91 91 91 92 93 95 97 98 99 101 103 105 107 109 111 113 116 117 119 120 122 124 126 127 127 128 129 130 131 132 133 134 134 134 134 133 132 132 132 131 131 130 129 129 128 128 129 129 130 130 130 130 131 131 131 132 133 134 134 134 134 134 133 133 133 134 135 136 136 135 135 135 135 135 134 133 131
87 87 88 89 90 91 92 93 93 94 94 95 97 98 100 101 103 105 107 109 112 114 116 118 119 120 121 123 125 126 127 127 128 130 130 131 132 133 134 135 135 135 134 133 131 129 129 128 128 128 128 129 129 130 131 131 132 132 132 132 132 133 134 135 136 137 137 137 136 135 134 133 133 134 134 135 135 136 136 136 136 136 135 134 132
88 89 90 91 92 94 94 95 95 96 97 98 100 101 103 105 107 110 112 114 116 118 119 120 121 123 124 126 126 127 128 129 130 130 131 132 133 134 134 135 135 134 133 131 129 126 126 127 128 128 129 130 131 133 133 133 134 134 134 134 134 134 136 137 138 139 139 139 138 137 135 135 134 134 135 135 135 136 136 137 137 137 136 134 132
90 90 92 93 95 95 96 96 96 97 99 101 104 106 108 110 112 113 115 117 119 120 122 123 124 125 126 127 127 128 129 130 130 131 132 132 133 134 134 134 133 132 130 128 127 125 125 126 128 130 131 132 134 135 136 137 137 136 136 136 136 137 138 139 140 140 140 140 139 137 136 135 136 136 136 136 135 136 137 138 138 138 137 134 132
95 95 96 96 97 98 99 100 101 102 104 107 109 110 112 113 114 116 118 120 121 122 123 124 124 125 127 127 129 130 130 131 131 131 132 132 133 133 132 131 129 128 127 127 127 126 126 127 129 132 133 135 137 138 140 140 140 139 139 139 139 139 140 140 140 140 140 139 138 136 135 135 136 136 136 136 136 137 138 139 139 139 137 135 133
100 101 101 101 101 101 102 104 105 108 110 111 112 112 113 115 117 119 121 121 122 122 122 123 125 126 128 129 130 131 131 131 131 131 131 131 131 129 128 126 126 126 126 127 128 129 129 130 132 134 136 138 140 141 142 142 142 141 141 141 140 140 140 140 140 139 139 138 137 135 135 135 135 136 136 137 137 138 139 140 140 139 138 136 135
100 101 102 102 103 104 105 107 109 110 111 112 113 114 116 118 120 120 120 121 121 121 123 125 127 129 130 131 131 131 130 130 130 130 129 128 126 125 124 124 125 126 127 129 130 132 133 134 135 137 139 140 141 142 143 143 142 142 141 141 140 140 139 138 137 136 136 135 134 134 134 134 135 136 137 137 137 138 139 140 140 139 138 137 135
98 99 101 102 104 105 107 108 109 110 111 113 115 117 119 120 120 120 120 121 122 124 126 128 130 131 131 131 130 129 129 128 127 126 124 123 122 122 123 124 126 127 129 131 133 135 137 138 138 139 140 141 142 143 143 143 143 141 140 139 138 137 136 134 132 131 132 132 132 133 133 134 134 135 137 138 137 138 139 139 139 138 138 137 135
98 100 101 103 105 107 108 109 110 112 114 116 117 118 119 119 120 121 122 123 125 127 128 130 130 130 129 128 128 127 126 124 122 121 120 120 121 122 124 126 128 130 132 134 136 137 139 139 140 140 141 141 142 142 142 142 142 141 139 137 134 131 130 128 127 128 129 130 131 131 132 133 134 135 136 136 136 135 136 136 135 134 134 134 133
100 102 104 106 108 109 111 112 114 115 116 117 117 118 119 120 122 123 124 124 125 127 127 128 128 127 126 125 124 122 120 119 118 117 118 120 122 124 126 128 131 133 135 136 138 139 139 139 140 140 140 140 140 140 140 140 139 138 136 134 131 128 126 124 124 125 128 129 130 130 130 131 132 132 133 134 133 132 132 132 130 130 130 130 129
103 105 107 109 111 112 113 114 114 114 114 115 116 118 119 120 121 122 123 123 124 124 125 124 124 123 121 120 118 116 116 116 116 118 120 122 124 126 128 131 132 134 135 136 137 138 138 138 138 138 138 138 138 139 138 137 135 133 132 130 128 127 125 123 122 123 126 129 129 128 128 129 129 128 128 129 129 128 129 129 127 126 126 126 126
106 107 109 109 110 111 111 111 111 111 112 113 115 116 117 118 119 120 120 121 121 121 121 119 118 116 115 113 113 113 114 116 118 120 122 125 127 129 130 131 133 134 134 135 136 136 135 135 135 135 135 135 136 136 135 134 132 130 129 129 128 126 125 123 120 120 123 128 129 127 126 127 127 124 122 125 126 124 125 125 125 124 124 124 123
103 104 105 105 106 107 107 108 109 110 111 111 113 114 115 115 116 117 117 117 117 116 114 112 111 110 110 110 112 114 116 118 120 122 124 126 127 128 130 131 132 133 133 134 134 133 132 132 132 133 133 133 132 132 132 131 130 129 128 128 128 127 125 123 121 119 121 125 127 124 122 124 124 120 117 119 121 121 121 122 122 122 122 122 121
99 100 101 102 103 104 105 106 107 107 108 109 110 110 111 111 112 112 112 111 109 107 106 106 106 107 109 111 113 116 118 120 122 123 124 125 126 127 128 129 130 131 131 132 131 130 130 130 130 130 131 131 130 130 130 130 129 128 127 127 127 127 125 124 122 121 121 124 124 121 118 118 118 113 111 113 116 117 117 117 118 119 118 117 116
98 99 99 100 101 101 102 103 103 104 105 105 105 105 106 106 106 105 104 102 101 101 102 104 106 108 110 113 116 118 119 121 122 123 123 124 124 124 125 126 126 127 129 129 128 128 128 129 128 128 129 129 129 129 129 129 129 128 126 126 126 126 126 124 123 122 122 122 120 116 111 109 109 106 103 106 109 110 110 111 113 114 114 112 111
95 95 96 96 97 97 98 98 99 99 99 99 99 99 99 99 98 97 96 97 98 100 103 105 108 110 113 115 116 118 119 120 121 122 122 121 121 121 122 124 124 126 126 126 126 127 127 127 127 127 128 128 128 129 129 129 128 127 126 126 126 126 126 124 123 121 120 119 117 111 105 103 105 102 98 100 102 102 104 106 107 108 107 106 105
90 91 91 92 92 92 92 92 92 91 91 91 91 92 92 92 92 92 94 96 99 102 105 108 110 112 113 115 116 117 118 119 120 120 119 118 118 120 122 123 123 124 125 125 125 126 126 126 127 127 127 127 127 128 128 128 128 127 127 127 128 128 127 125 122 120 119 118 117 112 105 103 103 100 97 97 97 97 100 102 102 102 101 99 98
85 85 85 86 86 85 84 83 83 83 83 84 86 87 88 89 90 93 96 99 102 104 107 108 110 112 113 114 115 116 116 117 118 118 117 117 118 120 122 122 123 124 124 124 125 126 126 126 127 127 127 127 127 128 128 129 129 129 129 128 128 128 127 124 121 119 117 117 116 112 106 102 101 98 96 94 94 95 97 99 98 97 95 93 92
78 78 78 78 77 76 75 75 76 78 80 82 84 86 88 90 92 95 98 100 103 105 107 109 110 112 113 113 113 114 115 116 117 117 117 118 119 120 122 122 123 124 124 124 125 126 126 126 126 126 126 127 127 128 129 130 131 131 131 129 128 127 125 123 120 117 115 114 113 109 104 101 99 97 94 91 92 94 95 94 93 93 91 89 87
70 70 70 69 69 70 71 73 76 79 81 83 85 87 89 92 94 96 98 101 103 105 107 109 110 111 111 112 112 114 115 116 117 117 118 119 120 121 122 123 124 124 124 124 125 125 125 125 125 126 126 127 127 128 129 130 131 131 130 129 128 126 124 122 119 116 112 111 110 107 102 98 96 95 93 88 89 94 94 89 88 87 86 85 84
65 65 65 66 68 71 73 76 78 81 83 85 87 89 91 93 95 97 99 101 103 106 107 109 109 110 111 112 113 115 116 117 117 118 120 121 122 123 124 124 125 125 125 124 124 124 124 124 124 125 125 126 127 127 128 128 127 127 127 127 127 126 123 120 118 115 111 108 107 104 99 95 93 93 91 86 84 88 92 89 84 82 81 81 81
Wind_Direction
272 273 273 273 274 275 275 276 276 277 277 277 278 278 279 279 279 279 279 279 280 280 281 281 281 281 282 282 282 283 283 283 283 283 283 283 283 283 283 283 283 283 283 283 283 283 283 283 283 283 283 284 284 284 284 284 284 284 283 283 283 283 282 282 282 282 281 281 281 280 280 280 280 280 279 279 279 279 278 278 278 277 277 277 276
272 272 273 273 273 273 274 274 275 275 275 275 275 276 277 278 279 279 279 279 279 279 280 280 280 281 281 282 282 282 282 282 283 283 282 282 282 282 281 282 282 282 282 283 283 283 283 283 283 283 282 282 282 282 282 283 283 283 283 283 282 282 282 281 281 280 280 280 280 280 280 279 279 279 278 278 278 278 278 277 277 277 276 276 276
272 272 273 273 273 273 273 274 274 274 274 274 274 274 275 276 277 278 278 279 279 279 280 280 280 280 281 281 281 281 282 282 282 282 281 281 281 281 281 282 282 282 282 283 283 283 283 282 282 282 281 281 281 281 281 281 281 282 282 282 282 282 281 281 281 280 280 279 279 279 279 279 278 278 277 277 277 277 277 277 276 276 276 276 275
271 272 272 273 273 274 274 274 274 274 274 274 274 274 274 275 275 276 276 277 278 279 279 280 280 280 281 281 281 281 281 281 281 281 281 280 281 281 281 282 282 282 282 282 282 282 282 282 282 281 281 281 281 281 281 281 281 281 281 281 281 281 280 280 280 280 280 279 279 278 278 277 277 277 277 276 276 276 275 275 275 275 275 275 275
271 271 271 272 272 273 274 274 275 275 275 274 274 274 274 274 274 275 275 276 277 278 278 279 279 279 280 280 280 280 280 281 281 280 280 280 280 280 281 281 281 281 281 281 281 281 281 281 281 281 281 281 280 280 280 280 280 280 280 280 279 279 279 278 278 278 278 278 278 278 278 277 276 276 275 275 275 275 275 274 274 274 274 274 274
271 271 270 271 272 272 273 274 275 275 275 275 275 275 275 275 275 275 276 276 277 277 277 278 278 278 279 279 279 279 280 280 280 280 280 280 280 280 280 280 280 280 281 281 280 280 280 280 280 280 280 280 280 280 280 280 280 279 279 279 278 278 278 277 277 277 276 276 276 277 277 276 276 276 275 275 275 274 274 274 274 273 273 273 272
270 270 270 270 271 272 273 273 274 274 275 275 275 275 275 275 275 276 276 277 277 278 278 278 279 279 279 279 279 279 280 280 280 280 281 281 281 281 281 281 281 281 282 282 281 281 281 281 281 281 281 280 280 280 280 280 280 279 279 279 278 278 277 277 277 276 276 276 275 275 275 275 275 274 275 275 275 274 274 274 273 273 272 272 272
270 270 270 270 271 272 273 273 274 273 273 274 275 276 276 276 276 276 277 277 278 278 278 279 279 280 280 280 280 281 281 281 281 281 281 281 282 282 283 283 283 283 283 284 284 283 283 283 283 282 282 281 281 281 281 280 280 279 279 278 278 277 277 277 276 276 276 275 275 275 275 274 274 273 273 273 273 273 273 273 273 273 272 272 272
270 271 271 271 272 272 273 273 273 273 273 273 274 276 276 277 277 277 277 277 278 278 279 279 280 281 281 282 282 282 282 282 282 282 283 283 283 283 284 284 284 284 285 285 285 285 284 284 283 282 282 282 282 281 281 281 281 280 279 278 278 277 276 276 276 276 276 275 275 274 274 274 274 273 273 273 272 272 272 272 272 271 271 271 271
271 271 272 272 272 273 273 273 273 273 273 273 274 275 276 277 277 278 278 278 279 279 280 280 281 281 282 282 282 283 283 283 283 283 284 284 284 284 284 285 285 285 285 285 285 285 285 284 284 283 283 283 283 283 282 282 281 280 279 278 277 276 276 275 275 275 275 275 275 275 274 274 273 273 273 273 273 273 272 272 271 271 270 270 270
271 272 273 273 273 273 273 273 273 273 273 273 274 275 276 276 277 278 278 279 280 280 280 281 281 281 282 282 282 283 283 283 283 284 284 284 284 285 285 286 286 286 286 286 286 285 285 285 285 284 284 284 284 283 283 282 281 280 279 278 278 277 276 276 275 275 275 275 275 275 275 274 274 273 273 272 272 272 272 272 271 271 271 270 270
273 273 273 273 273 273 273 273 272 273 273 273 274 275 275 276 277 278 279 279 279 280 280 280 280 281 281 282 282 283 283 284 284 285 285 285 286 286 286 286 286 286 286 286 286 286 286 285 285 285 284 284 284 283 283 282 282 281 280 279 279 278 278 278 277 277 277 276 276 276 275 275 274 274 274 273 273 272 271 271 271 270 270 270 270
274 274 273 272 272 272 272 272 272 272 273 273 274 274 275 276 277 278 278 278 279 279 279 280 280 281 281 282 282 283 283 284 285 285 286 286 286 286 286 286 286 286 286 286 286 286 285 285 285 284 284 283 283 282 282 281 281 281 280 280 279 279 279 278 278 278 278 277 277 277 276 276 275 275 274 274 274 273 273 272 271 271 270 270 269
273 273 272 272 272 272 272 272 272 273 273 274 274 274 275 276 276 277 277 278 278 279 279 280 280 281 281 282 282 283 283 284 284 285 286 286 286 286 286 286 286 286 286 286 285 285 285 284 284 284 283 283 282 282 281 281 281 280 280 280 280 279 279 278 278 278 277 277 277 276 276 275 275 275 274 274 274 274 273 273 273 272 272 271 270
272 272 272 272 272 272 272 273 273 273 273 274 275 275 276 276 276 277 277 278 278 279 279 280 280 281 281 282 282 283 283 284 284 284 285 285 285 286 285 285 285 285 285 285 285 284 284 284 284 283 283 283 282 282 281 281 281 281 281 281 281 280 280 280 279 279 278 277 277 276 275 275 274 274 273 273 273 273 273 273 272 272 272 272 271
271 271 271 271 272 272 272 272 273 273 274 274 275 275 276 276 277 277 278 278 278 279 280 280 281 281 282 282 282 283 283 283 284 284 284 285 285 285 285 285 285 285 285 285 284 284 284 284 283 283 283 283 283 282 282 282 282 282 282 282 282 282 282 281 281 280 279 279 278 277 277 276 275 275 274 273 272 272 271 271 271 271 271 271 270
270 270 271 271 271 272 272 272 273 274 274 274 274 275 275 276 276 277 278 278 279 279 280 281 281 282 282 283 283 283 284 284 284 284 285 285 285 285 285 285 285 285 285 285 285 284 284 284 284 284 284 284 283 283 283 283 283 283 283 283 283 283 283 282 282 281 281 280 279 278 278 277 276 276 275 274 274 273 272 272 271 270 270 269 269
269 269 269 270 270 271 272 272 273 273 273 273 273 274 274 275 275 276 277 278 279 280 280 281 282 282 283 283 284 284 285 285 285 285 285 285 285 285 286 286 286 287 287 287 287 287 287 287 287 287 286 285 285 285 285 285 284 284 284 284 283 283 283 282 282 281 281 280 280 279 279 278 277 276 276 275 274 274 273 272 272 271 271 270 269
268 268 269 269 269 270 271 271 272 272 272 273 273 274 274 275 276 277 277 278 279 280 281 281 282 283 284 284 285 285 285 285 285 286 286 286 287 287 287 287 288 289 289 289 290 290 290 289 289 289 288 288 287 287 286 286 286 285 285 284 284 283 282 282 281 281 280 280 279 279 278 277 277 276 276 275 275 274 274 273 272 272 271 270 270
268 269 269 269 269 269 269 270 270 271 272 273 274 275 275 276 277 278 279 280 280 281 281 282 283 284 284 284 285 285 285 286 286 287 287 288 289 289 289 290 290 290 290 291 291 291 291 291 290 290 289 289 289 289 288 288 288 288 287 287 286 286 285 285 284 284 283 282 281 280 279 279 278 277 276 276 275 274 274 273 272 272 271 270 270
268 268 268 268 268 268 269 270 271 272 273 274 275 276 277 278 279 279 280 281 281 282 282 283 284 285 285 285 286 286 287 287 288 288 289 289 290 291 292 292 293 293 293 293 292 292 291 291 291 291 291 292 292 292 291 291 291 290 290 289 289 289 288 288 287 287 286 285 285 284 283 282 281 280 279 278 277 276 275 274 273 272 271 271 270
267 268 267 267 268 269 270 271 272 273 274 275 276 277 278 279 279 280 281 281 282 283 284 285 285 286 286 287 287 287 288 288 288 289 290 291 291 292 293 293 294 295 295 295 295 294 294 294 294 294 294 294 294 293 293 293 292 291 291 291 290 290 289 289 288 287 287 286 286 285 284 283 283 282 281 280 280 279 277 276 275 274 273 272 271
266 266 267 268 269 270 271 272 273 274 275 276 277 278 279 279 280 281 281 282 283 284 285 285 286 286 286 287 287 288 288 289 290 291 291 292 293 293 294 295 295 296 296 296 296 296 295 295 295 295 295 294 294 294 293 293 292 292 291 291 290 290 289 289 289 288 288 287 286 285 285 284 283 283 282 281 280 279 278 278 277 276 275 273 272
264 265 267 269 270 271 272 273 274 275 276 277 278 279 279 280 280 281 282 283 284 285 285 286 286 287 287 288 289 289 290 291 291 292 293 294 295 295 296 296 296 296 296 296 295 295 294 294 294 294 294 294 294 293 293 293 292 292 292 291 291 291 290 290 290 289 289 288 288 287 286 286 285 284 283 282 281 280 279 278 277 277 276 275 273
263 264 266 268 270 271 272 273 273 274 275 276 276 277 278 279 280 281 282 283 284 285 286 287 288 288 288 289 289 290 291 292 293 294 295 296 296 297 297 296 296 295 295 294 294 294 293 294 294 293 293 293 293 293 293 293 293 293 293 293 292 292 292 291 291 290 290 289 288 288 287 287 286 285 284 283 281 280 279 278 277 277 276 275 273
263 264 266 267 269 270 271 272 272 272 273 274 275 276 278 279 280 281 282 283 284 286 286 287 287 287 288 289 290 291 292 293 294 295 296 296 296 296 296 295 295 294 294 293 293 293 293 293 293 293 293 293 293 293 293 293 293 294 294 294 294 294 293 293 293 292 292 291 291 290 290 289 288 287 286 284 283 282 281 280 279 277 276 275 273
265 266 268 269 270 271 271 272 272 273 274 275 276 277 278 279 280 282 282 283 284 285 285 286 287 288 290 291 292 293 293 294 294 294 295 295 295 295 295 294 294 293 293 293 294 294 294 294 294 294 294 294 294 294 294 294 294 294 294 294 294 294 294 294 294 294 294 294 293 293 292 292 291 290 289 288 286 285 283 282 281 279 278 276 275
266 267 269 270 271 272 272 273 273 275 276 277 278 278 279 280 281 282 283 284 284 285 286 288 289 290 291 292 292 292 292 292 293 293 294 294 294 294 294 293 293 293 293 294 295 295 295 295 295 295 295 295 295 295 295 295 295 295 295 295 295 295 295 295 295 294 294 294 294 294 294 293 293 292 292 291 289 288 287 285 284 282 280 278 276
264 266 267 268 269 270 271 272 274 276 277 278 278 278 279 281 282 283 284 284 285 287 288 289 289 290 290 290 291 291 291 292 292 293 294 294 294 293 293 293 293 293 294 294 295 296 296 296 296 296 296 296 296 296 296 296 296 296 296 296 296 296 295 295 295 295 294 294 294 294 293 293 293 293 292 292 291 290 289 288 286 284 282 280 278
261 263 264 265 266 268 270 272 274 276 276 277 277 278 279 281 282 283 284 285 286 286 287 287 288 288 289 289 290 290 291 292 293 293 293 293 293 293 293 294 294 295 295 296 296 296 296 296 296 296 296 296 296 296 296 296 296 296 296 296 296 296 296 296 295 295 295 295 294 294 293 293 293 293 292 292 291 291 290 288 287 285 283 281 279
261 262 262 263 265 268 270 272 274 275 275 275 276 277 279 280 281 282 283 284 285 285 286 287 287 288 288 289 290 291 292 292 292 292 292 292 293 293 294 295 295 296 296 296 297 296 296 296 296 296 296 296 296 296 296 296 296 296 296 296 296 296 296 296 296 296 296 295 295 294 294 294 293 293 292 292 291 291 290 288 287 285 284 282 281
263 263 264 265 267 269 271 272 273 273 273 274 275 277 278 279 280 282 283 284 284 285 286 286 287 288 289 290 290 291 291 291 292 292 292 293 294 294 295 296 296 296 297 297 297 297 297 297 296 296 296 297 297 296 296 296 296 296 296 297 297 297 297 297 297 297 296 296 296 295 295 294 293 293 292 291 291 290 289 288 287 285 284 283 282
264 264 265 267 268 270 271 271 271 272 273 274 276 277 278 279 281 282 283 283 284 285 286 287 287 288 289 289 290 290 291 291 292 293 293 294 295 295 296 296 297 297 297 297 297 297 297 297 297 297 297 297 297 297 297 297 297 297 297 298 298 298 298 298 297 297 297 297 296 296 295 295 294 293 292 291 290 289 288 288 287 286 285 285 284
263 263 264 266 267 269 270 270 271 272 273 275 276 277 278 280 281 282 283 284 285 285 286 287 288 288 289 290 290 291 292 292 293 294 294 295 296 296 296 297 297 297 297 297 297 297 297 297 297 297 297 297 297 297 297 297 297 298 298 298 298 298 298 298 298 297 297 297 297 296 296 295 294 293 292 291 290 289 288 287 287 286 286 286 286
262 263 264 266 267 268 269 270 270 272 273 275 277 278 279 279 281 282 283 284 285 286 287 287 288 289 290 291 292 292 293 293 294 295 295 296 296 296 296 297 297 297 297 297 297 297 297 297 297 297 297 297 297 297 298 298 298 298 299 299 298 298 298 298 298 298 297 297 296 295 295 294 293 292 291 290 290 289 288 287 287 287 287 287 287
264 265 266 267 267 269 270 270 271 273 274 276 277 278 279 280 281 283 284 285 286 287 287 288 289 290 291 292 292 293 293 294 295 295 296 296 296 296 297 297 297 297 297 297 297 298 298 297 297 297 297 297 297 298 298 298 298 299 299 299 299 298 298 298 297 297 296 295 295 294 294 293 292 291 290 290 289 289 288 288 287 288 288 288 288
266 266 266 267 267 269 270 271 273 274 275 276 277 278 279 281 282 283 285 286 287 288 289 289 290 291 291 292 292 293 294 294 295 296 296 296 297 297 297 297 297 297 297 298 298 298 298 298 298 298 298 298 298 298 298 298 298 298 298 298 298 298 297 297 296 295 295 294 294 293 293 292 291 291 290 290 290 289 289 288 288 288 288 288 287
265 266 266 266 267 269 271 273 274 275 275 276 278 279 280 282 283 285 286 287 288 288 289 289 290 290 291 292 293 294 294 295 295 296 296 297 297 297 297 297 297 297 298 298 298 298 298 298 298 298 298 298 298 298 298 298 298 298 298 298 297 297 296 296 295 295 294 294 293 293 292 291 291 290 290 290 290 290 289 289 289 289 289 288 287
264 265 265 266 267 269 271 273 274 275 276 278 279 280 282 283 284 285 286 286 287 287 288 288 289 290 291 292 293 294 295 295 296 296 297 297 297 297 297 297 298 298 298 298 298 298 298 298 298 298 298 298 298 297 297 297 297 298 298 297 297 296 295 295 295 294 294 293 293 292 291 291 290 290 290 290 290 289 289 289 289 288 288 287 286
264 265 265 266 268 270 273 274 275 277 278 279 280 281 282 283 284 284 285 286 286 287 288 288 290 291 292 293 294 294 295 296 296 297 297 296 297 297 297 298 298 298 298 298 298 298 298 298 298 298 298 297 297 297 297 297 297 297 297 297 296 296 295 295 294 294 293 292 292 291 290 290 290 290 290 290 290 290 290 289 288 287 286 285 284
264 265 266 268 269 272 274 275 276 277 278 279 280 281 281 282 283 284 285 286 287 287 288 289 290 292 293 293 294 295 296 296 296 296 297 297 297 297 298 298 298 298 298 298 298 298 298 298 298 298 297 297 297 297 297 297 297 297 297 296 296 295 295 295 295 295 294 293 292 291 291 291 290 291 291 291 291 291 290 289 288 287 285 285 284
265 267 268 269 271 273 274 275 276 277 278 279 280 281 282 283 284 285 285 286 287 288 289 290 291 292 293 294 295 295 296 296 296 296 297 297 298 298 298 298 298 298 298 298 298 298 298 298 298 298 298 298 298 298 298 298 298 298 297 297 296 296 295 295 295 295 295 293 293 293 293 293 292 293 293 293 292 291 290 288 287 286 285 284 283
267 268 270 271 272 274 275 276 277 278 278 279 280 281 282 283 284 285 286 286 288 289 290 292 293 293 294 295 295 295 296 296 296 297 298 298 298 299 299 298 298 298 298 298 299 299 299 299 299 299 299 299 299 299 299 299 299 299 298 298 298 297 297 296 296 296 295 294 294 294 295 294 293 294 294 293 291 290 288 287 286 285 284 283 283
270 271 272 273 274 275 276 276 277 278 279 280 281 282 283 284 284 285 286 287 289 290 292 293 293 294 294 294 295 295 296 296 297 297 298 298 299 299 299 299 299 299 300 300 301 301 301 301 301 301 301 301 301 301 300 300 300 300 299 299 299 299 299 299 298 298 297 296 295 296 296 295 294 294 294 292 290 288 287 286 285 284 283 282 282
272 273 273 274 275 275 276 276 277 278 279 280 282 282 283 284 284 286 287 289 291 292 292 293 293 294 294 294 295 295 296 296 297 297 298 299 299 300 300 300 301 302 302 303 303 303 303 303 303 303 302 302 302 302 301 301 301 301 301 301 301 300 300 300 299 299 298 297 297 297 296 295 294 294 292 290 288 287 286 285 284 283 282 282 282
272 272 273 274 274 275 276 277 278 279 280 281 282 282 283 284 286 288 290 291 292 292 292 293 293 293 294 294 295 295 296 297 297 298 299 300 300 301 302 302 303 304 304 305 305 305 304 304 304 304 304 303 303 303 303 303 303 303 303 303 302 301 301 301 301 301 301 300 299 298 297 297 297 296 293 290 289 288 287 285 283 282 283 283 283
272 272 273 274 274 275 276 277 279 280 281 281 282 283 285 287 288 290 291 291 292 292 292 292 293 293 294 294 295 296 297 298 299 299 300 301 302 303 303 304 305 305 306 306 306 306 306 305 305 305 305 305 305 305 305 305 305 305 305 305 304 303 303 303 304 304 304 304 302 301 301 301 300 298 296 294 292 290 287 285 284 284 284 284 285
272 273 273 274 275 276 278 279 280 281 282 283 284 285 287 289 290 291 291 291 292 292 292 292 293 294 294 295 296 297 298 300 300 301 302 303 304 305 305 306 306 307 307 308 308 307 307 307 307 307 307 307 307 307 307 307 307 307 307 306 306 305 305 305 306 306 306 305 303 303 303 304 302 300 298 296 294 291 288 287 287 287 287 287 286
273 274 275 276 277 279 280 281 282 283 283 284 285 287 289 290 291 291 291 291 291 292 292 293 294 295 296 297 298 299 301 302 302 303 304 305 306 306 306 307 308 308 309 309 309 309 309 309 309 309 309 309 309 309 309 309 309 309 308 307 306 306 306 307 307 307 307 306 304 304 305 305 303 301 299 297 295 292 290 289 289 289 289 289 288
275 276 278 280 281 282 283 283 283 284 284 286 288 289 290 290 290 290 291 291 292 293 293 294 295 296 298 299 300 302 303 303 304 305 306 306 307 307 308 309 309 310 310 310 310 310 310 310 311 311 311 311 311 310 310 310 310 309 309 308 307 307 307 308 308 308 308 307 306 306 306 306 304 301 300 298 296 294 292 291 290 290 290 289 288
279 281 282 283 284 284 284 284 285 285 287 288 289 289 290 291 291 292 292 292 293 293 294 295 297 298 299 301 302 303 304 305 306 307 307 308 308 308 309 310 310 310 310 311 311 311 311 311 311 311 311 311 311 311 311 310 310 309 309 308 308 308 309 309 309 309 309 309 307 306 307 306 304 301 300 299 297 295 294 293 292 291 291 289 288
Height
10839 10840 10840 10840 10839 10839 10839 10839 10839 10839 10839 10838 10838 10837 10837 10837 10837 10837 10836 10836 10835 10835 10835 10834 10833 10832 10832 10831 10831 10830 10829 10829 10829 10830 10829 10825 10824 10823 10821 10820 10819 10818 10817 10815 10814 10813 10811 10810 10809 10808 10806 10804 10802 10801 10800 10798 10798 10797 10797 10796 10795 10795 10793 10792 10791 10788 10787 10786 10785 10784 10783 10782 10781 10780 10779 10778 10777 10776 10775 10774 10773 10772 10771 10770 10769
10834 10834 10835 10835 10834 10834 10833 10833 10833 10833 10833 10833 10833 10832 10831 10831 10831 10831 10831 10831 10830 10830 10829 10828 10828 10827 10827 10826 10825 10824 10823 10823 10823 10824 10824 10820 10817 10816 10815 10815 10814 10812 10811 10810 10809 10807 10806 10805 10803 10802 10800 10798 10796 10795 10794 10792 10791 10791 10789 10788 10788 10787 10786 10784 10784 10782 10780 10779 10777 10776 10776 10775 10774 10772 10771 10771 10770 10769 10768 10767 10766 10765 10764 10763 10762
10828 10829 10829 10829 10829 10828 10828 10828 10827 10827 10827 10827 10827 10827 10826 10826 10825 10825 10825 10824 10824 10824 10823 10822 10822 10821 10821 10820 10819 10818 10817 10817 10817 10817 10816 10814 10812 10809 10809 10810 10808 10806 10805 10804 10803 10801 10800 10798 10797 10795 10793 10791 10789 10788 10787 10786 10784 10783 10782 10781 10780 10779 10778 10776 10775 10774 10772 10771 10770 10769 10767 10766 10765 10764 10763 10762 10761 10761 10760 10759 10758 10757 10756 10755 10754
10823 10823 10823 10823 10823 10823 10823 10823 10822 10821 10822 10822 10821 10821 10820 10820 10819 10819 10818 10818 10818 10817 10817 10816 10815 10815 10814 10814 10813 10811 10811 10811 10811 10810 10808 10808 10806 10802 10802 10803 10801 10799 10799 10799 10797 10795 10793 10792 10790 10788 10786 10784 10782 10781 10780 10779 10777 10776 10774 10773 10772 10770 10769 10768 10766 10765 10763 10761 10761 10760 10759 10757 10756 10754 10753 10752 10752 10751 10750 10749 10749 10748 10747 10747 10746
10817 10817 10817 10817 10817 10817 10817 10817 10816 10816 10816 10816 10815 10815 10815 10814 10813 10813 10812 10811 10811 10810 10810 10809 10809 10808 10808 10807 10806 10804 10804 10804 10804 10802 10800 10801 10800 10797 10797 10796 10794 10792 10791 10792 10791 10788 10787 10785 10783 10781 10779 10776 10775 10774 10772 10771 10769 10767 10766 10764 10763 10761 10760 10759 10757 10755 10753 10752 10751 10750 10749 10748 10746 10744 10743 10742 10742 10741 10740 10739 10738 10738 10737 10737 10736
10811 10811 10811 10810 10810 10811 10811 10811 10810 10810 10810 10809 10809 10809 10808 10808 10807 10806 10805 10805 10804 10803 10803 10802 10802 10801 10801 10801 10798 10797 10798 10797 10797 10794 10793 10794 10792 10790 10790 10788 10786 10785 10783 10783 10782 10781 10780 10778 10775 10773 10771 10768 10766 10766 10765 10762 10760 10758 10756 10755 10753 10752 10750 10749 10748 10746 10744 10742 10741 10740 10739 10737 10736 10734 10733 10732 10731 10731 10730 10729 10728 10727 10726 10726 10725
10804 10804 10804 10804 10804 10804 10804 10804 10804 10803 10803 10802 10802 10802 10801 10801 10800 10799 10799 10798 10797 10797 10796 10795 10794 10794 10794 10793 10790 10789 10791 10790 10789 10787 10786 10786 10783 10782 10782 10780 10778 10777 10776 10774 10773 10773 10772 10770 10768 10765 10762 10760 10758 10757 10756 10754 10751 10749 10747 10746 10744 10741 10740 10739 10738 10736 10734 10732 10731 10730 10729 10727 10726 10723 10722 10721 10720 10720 10719 10718 10718 10717 10716 10714 10714
10796 10797 10797 10798 10798 10797 10797 10797 10797 10796 10795 10795 10794 10794 10794 10793 10793 10792 10792 10791 10790 10789 10788 10788 10787 10786 10786 10785 10781 10781 10783 10782 10780 10778 10778 10778 10775 10774 10773 10772 10770 10769 10767 10766 10764 10764 10763 10762 10760 10756 10753 10751 10749 10747 10746 10744 10742 10739 10737 10736 10734 10731 10729 10728 10727 10725 10723 10721 10720 10719 10718 10716 10715 10713 10711 10709 10709 10708 10707 10706 10706 10705 10704 10703 10702
10789 10790 10790 10791 10791 10790 10790 10790 10789 10789 10788 10787 10787 10786 10786 10785 10785 10784 10783 10783 10782 10782 10781 10780 10779 10778 10779 10777 10773 10773 10774 10773 10771 10769 10769 10769 10766 10765 10764 10762 10761 10760 10758 10756 10755 10754 10753 10752 10751 10748 10744 10741 10739 10737 10736 10735 10732 10729 10727 10725 10723 10721 10719 10717 10716 10714 10712 10710 10709 10708 10707 10705 10704 10702 10700 10698 10696 10695 10694 10694 10694 10693 10692 10691 10690
10782 10782 10783 10783 10783 10783 10782 10782 10782 10781 10780 10780 10779 10778 10778 10777 10777 10776 10775 10775 10774 10774 10773 10772 10771 10771 10771 10769 10765 10765 10766 10764 10763 10761 10760 10760 10758 10757 10756 10753 10752 10751 10749 10746 10745 10744 10742 10741 10740 10738 10735 10732 10729 10725 10725 10724 10721 10718 10716 10714 10711 10709 10708 10706 10704 10703 10701 10699 10698 10697 10695 10694 10692 10691 10689 10687 10685 10682 10681 10680 10680 10680 10680 10679 10678
10774 10775 10775 10775 10775 10775 10774 10774 10774 10773 10773 10772 10772 10771 10770 10769 10769 10768 10767 10767 10766 10765 10764 10763 10763 10762 10763 10761 10757 10757 10758 10756 10755 10752 10751 10750 10749 10748 10747 10744 10741 10740 10738 10736 10734 10732 10731 10729 10728 10727 10725 10723 10719 10714 10711 10710 10709 10706 10703 10702 10700 10697 10695 10694 10692 10691 10689 10688 10686 10685 10683 10681 10679 10678 10676 10674 10672 10670 10668 10667 10666 10666 10666 10666 10665
10766 10767 10768 10767 10767 10767 10766 10766 10765 10765 10765 10764 10764 10763 10762 10762 10761 10761 10760 10759 10757 10756 10755 10755 10754 10754 10754 10753 10749 10748 10749 10748 10746 10744 10742 10741 10740 10738 10737 10735 10731 10729 10727 10725 10723 10721 10719 10718 10715 10714 10713 10711 10708 10704 10698 10696 10695 10693 10689 10686 10686 10685 10682 10679 10678 10677 10675 10674 10672 10671 10669 10667 10665 10663 10661 10659 10657 10655 10654 10652 10652 10652 10652 10651 10651
10758 10759 10759 10759 10759 10758 10757 10757 10757 10757 10757 10756 10756 10756 10755 10754 10753 10753 10752 10750 10749 10748 10747 10746 10746 10745 10745 10745 10742 10740 10740 10740 10738 10735 10733 10731 10729 10727 10726 10724 10721 10718 10716 10714 10712 10709 10708 10706 10703 10700 10699 10698 10696 10693 10687 10683 10681 10679 10674 10670 10669 10669 10668 10665 10663 10661 10660 10659 10657 10656 10654 10651 10650 10647 10645 10643 10641 10639 10638 10636 10636 10636 10636 10636 10636
10751 10751 10751 10750 10750 10750 10749 10749 10749 10749 10748 10748 10748 10747 10747 10746 10745 10745 10743 10742 10741 10739 10738 10737 10737 10736 10736 10736 10734 10731 10730 10730 10730 10727 10724 10721 10719 10717 10714 10714 10712 10707 10705 10703 10701 10698 10696 10694 10692 10687 10685 10684 10683 10680 10674 10669 10666 10664 10661 10655 10652 10652 10651 10649 10647 10646 10644 10643 10642 10640 10637 10635 10633 10631 10628 10626 10625 10623 10621 10620 10619 10619 10619 10619 10619
10744 10743 10743 10742 10741 10741 10741 10741 10741 10741 10740 10740 10739 10739 10738 10738 10736 10736 10735 10733 10732 10730 10730 10729 10728 10727 10727 10727 10726 10723 10720 10720 10720 10718 10716 10713 10710 10707 10703 10702 10702 10698 10694 10691 10688 10686 10683 10681 10679 10675 10670 10668 10666 10664 10660 10654 10651 10648 10646 10641 10637 10635 10634 10632 10630 10629 10627 10625 10623 10621 10619 10617 10615 10613 10612 10610 10608 10607 10605 10603 10602 10602 10601 10602 10601
10735 10734 10734 10733 10733 10733 10733 10733 10732 10732 10732 10732 10731 10730 10730 10729 10728 10727 10726 10725 10723 10722 10721 10720 10719 10718 10718 10717 10715 10714 10711 10709 10709 10708 10706 10702 10699 10697 10692 10689 10689 10686 10682 10679 10676 10673 10670 10667 10666 10662 10656 10652 10650 10648 10644 10639 10636 10634 10631 10627 10623 10619 10617 10614 10611 10609 10608 10606 10604 10602 10600 10597 10595 10593 10592 10591 10590 10589 10587 10586 10585 10584 10584 10584 10583
10727 10726 10725 10724 10724 10724 10724 10724 10724 10724 10724 10724 10723 10722 10721 10720 10719 10718 10717 10716 10715 10714 10713 10711 10710 10708 10707 10706 10705 10704 10702 10699 10698 10696 10695 10692 10688 10686 10681 10676 10674 10672 10669 10665 10661 10658 10655 10652 10650 10647 10641 10636 10634 10632 10628 10624 10622 10620 10617 10612 10608 10603 10600 10596 10592 10589 10587 10586 10584 10582 10580 10578 10575 10573 10571 10570 10569 10568 10566 10566 10565 10565 10565 10564 10564
10718 10718 10717 10716 10716 10716 10716 10716 10716 10716 10715 10715 10714 10714 10713 10712 10711 10710 10709 10708 10707 10706 10704 10702 10701 10699 10697 10696 10694 10693 10691 10689 10686 10683 10682 10679 10677 10675 10671 10664 10660 10657 10655 10651 10646 10642 10639 10636 10633 10629 10624 10620 10619 10616 10612 10609 10607 10605 10601 10597 10592 10587 10583 10579 10575 10571 10567 10565 10563 10560 10558 10556 10553 10551 10549 10548 10547 10546 10544 10544 10544 10543 10542 10542 10542
10710 10709 10709 10708 10707 10707 10708 10708 10708 10707 10707 10706 10706 10705 10704 10703 10702 10701 10700 10699 10698 10697 10695 10693 10691 10690 10688 10686 10684 10683 10680 10678 10676 10673 10670 10666 10662 10662 10660 10655 10650 10645 10641 10637 10632 10628 10624 10620 10617 10613 10608 10604 10603 10600 10597 10593 10590 10587 10584 10579 10575 10570 10566 10562 10557 10553 10549 10545 10543 10540 10537 10534 10531 10528 10527 10526 10524 10522 10521 10521 10521 10520 10519 10518 10518
10700 10700 10699 10698 10698 10699 10700 10700 10699 10699 10698 10697 10696 10695 10695 10694 10693 10692 10691 10690 10689 10687 10685 10683 10682 10680 10678 10677 10674 10672 10670 10667 10665 10663 10660 10656 10650 10646 10644 10642 10638 10634 10631 10625 10619 10613 10608 10605 10602 10598 10592 10589 10586 10582 10579 10576 10572 10568 10564 10560 10555 10550 10546 10542 10537 10532 10528 10524 10521 10518 10515 10512 10510 10507 10505 10505 10502 10500 10499 10498 10497 10496 10495 10493 10493
10691 10690 10690 10689 10689 10690 10691 10691 10690 10689 10689 10688 10687 10686 10685 10684 10683 10682 10681 10680 10678 10677 10675 10674 10672 10670 10668 10666 10663 10661 10659 10656 10653 10651 10649 10647 10643 10636 10630 10626 10620 10615 10613 10611 10606 10599 10594 10590 10586 10581 10576 10572 10567 10563 10561 10557 10553 10548 10545 10541 10535 10530 10526 10522 10518 10512 10507 10503 10499 10495 10492 10489 10487 10484 10482 10481 10479 10477 10475 10475 10474 10474 10471 10469 10469
10683 10682 10680 10679 10680 10681 10682 10682 10681 10680 10679 10679 10678 10677 10676 10675 10674 10673 10671 10670 10668 10667 10665 10664 10662 10659 10657 10654 10652 10650 10648 10645 10642 10640 10637 10635 10633 10628 10622 10617 10610 10601 10595 10591 10587 10582 10578 10575 10571 10565 10560 10555 10550 10545 10542 10539 10534 10529 10526 10522 10517 10512 10507 10503 10498 10494 10488 10483 10479 10475 10471 10468 10466 10463 10460 10458 10455 10452 10449 10449 10450 10449 10447 10446 10445
10676 10674 10671 10670 10671 10673 10673 10672 10672 10671 10670 10669 10668 10668 10667 10666 10664 10663 10661 10659 10658 10657 10655 10653 10651 10649 10646 10644 10641 10639 10636 10633 10630 10627 10624 10622 10619 10616 10611 10606 10601 10593 10585 10579 10572 10566 10562 10559 10555 10550 10545 10539 10533 10528 10524 10520 10515 10511 10507 10503 10498 10494 10489 10484 10479 10474 10468 10462 10458 10454 10450 10447 10445 10442 10439 10436 10433 10429 10426 10426 10425 10424 10423 10421 10420
10667 10666 10663 10662 10662 10663 10663 10663 10662 10662 10661 10660 10659 10658 10656 10655 10654 10652 10650 10648 10647 10646 10644 10642 10640 10637 10635 10632 10629 10626 10623 10620 10617 10614 10611 10608 10605 10602 10597 10592 10588 10581 10574 10569 10563 10556 10550 10546 10542 10536 10530 10525 10518 10512 10507 10502 10496 10491 10487 10483 10478 10474 10470 10465 10460 10454 10448 10442 10436 10433 10429 10427 10424 10420 10417 10415 10411 10408 10406 10405 10403 10400 10399 10398 10396
10659 10659 10657 10655 10654 10654 10655 10654 10654 10653 10652 10651 10650 10648 10647 10645 10643 10641 10640 10638 10636 10634 10632 10630 10627 10625 10622 10619 10616 10614 10610 10607 10604 10600 10597 10593 10590 10587 10583 10579 10575 10571 10564 10558 10552 10544 10536 10532 10527 10521 10516 10510 10504 10498 10491 10486 10479 10472 10468 10463 10458 10453 10449 10445 10441 10434 10427 10421 10417 10413 10410 10407 10402 10398 10395 10392 10388 10387 10385 10383 10382 10378 10376 10374 10371
10651 10651 10650 10648 10647 10646 10646 10646 10645 10645 10644 10642 10641 10639 10638 10636 10634 10632 10630 10627 10625 10623 10621 10618 10616 10613 10611 10608 10605 10602 10598 10594 10590 10586 10582 10579 10575 10573 10570 10567 10562 10557 10551 10544 10538 10530 10522 10516 10510 10504 10499 10493 10487 10482 10476 10470 10464 10457 10451 10446 10440 10434 10429 10424 10419 10414 10407 10400 10395 10392 10390 10386 10380 10375 10372 10368 10364 10363 10361 10358 10357 10355 10351 10349 10346
10644 10643 10642 10641 10640 10638 10638 10637 10636 10635 10634 10633 10631 10630 10628 10626 10624 10622 10620 10618 10616 10613 10611 10608 10605 10602 10599 10596 10592 10588 10584 10580 10577 10573 10569 10566 10562 10559 10556 10554 10550 10544 10536 10529 10521 10513 10506 10499 10493 10486 10481 10476 10470 10464 10459 10452 10448 10443 10436 10431 10426 10419 10413 10407 10401 10395 10389 10382 10375 10370 10367 10363 10356 10350 10347 10343 10339 10337 10335 10333 10332 10331 10325 10321 10320
10637 10636 10635 10634 10632 10631 10629 10628 10626 10625 10624 10623 10621 10620 10618 10617 10615 10613 10611 10608 10605 10603 10600 10597 10594 10590 10587 10583 10579 10576 10572 10568 10565 10561 10557 10553 10548 10544 10539 10535 10533 10531 10525 10517 10508 10497 10488 10482 10476 10469 10461 10457 10452 10446 10441 10435 10429 10426 10421 10415 10410 10404 10398 10391 10386 10379 10372 10365 10359 10353 10348 10342 10334 10327 10321 10317 10313 10309 10307 10305 10305 10305 10300 10295 10293
10630 10629 10628 10627 10625 10623 10621 10619 10618 10617 10615 10614 10612 10610 10609 10607 10605 10602 10600 10597 10594 10592 10589 10586 10583 10579 10575 10572 10568 10564 10560 10556 10552 10548 10544 10539 10533 10527 10522 10516 10513 10511 10509 10506 10498 10484 10474 10467 10460 10453 10445 10438 10434 10428 10422 10418 10411 10406 10404 10399 10393 10387 10381 10374 10368 10362 10356 10349 10343 10337 10331 10325 10317 10308 10299 10293 10288 10284 10280 10278 10276 10275 10271 10268 10265
10622 10621 10620 10619 10617 10615 10613 10612 10610 10608 10607 10605 10603 10601 10599 10597 10595 10592 10590 10587 10584 10582 10579 10576 10573 10569 10565 10561 10557 10553 10549 10545 10540 10535 10530 10524 10518 10511 10506 10500 10495 10491 10488 10488 10484 10470 10458 10453 10445 10436 10431 10424 10417 10412 10406 10401 10396 10389 10384 10381 10376 10369 10363 10356 10349 10343 10337 10332 10325 10318 10313 10308 10301 10292 10281 10272 10265 10260 10256 10252 10249 10246 10242 10240 10239
10614 10613 10612 10611 10609 10608 10606 10604 10602 10600 10598 10597 10595 10592 10590 10588 10586 10583 10581 10578 10575 10572 10569 10565 10562 10558 10554 10550 10545 10541 10537 10532 10526 10521 10514 10508 10503 10497 10491 10485 10479 10474 10469 10466 10466 10456 10441 10436 10430 10420 10414 10409 10402 10397 10391 10384 10379 10374 10368 10362 10358 10352 10344 10337 10328 10321 10315 10310 10305 10299 10293 10288 10282 10273 10262 10252 10245 10238 10232 10226 10222 10217 10213 10212 10212
10607 10606 10605 10604 10602 10600 10598 10596 10594 10592 10590 10588 10586 10584 10581 10579 10577 10575 10572 10569 10565 10562 10558 10554 10550 10546 10542 10538 10533 10528 10522 10517 10511 10505 10499 10493 10488 10481 10476 10470 10462 10457 10452 10446 10446 10441 10426 10417 10413 10405 10398 10394 10386 10379 10376 10370 10362 10357 10353 10346 10340 10334 10326 10318 10309 10300 10291 10286 10282 10277 10270 10265 10260 10252 10242 10233 10225 10217 10210 10203 10197 10191 10186 10184 10185
10599 10598 10597 10596 10595 10593 10591 10588 10586 10584 10582 10580 10577 10575 10573 10570 10568 10565 10562 10559 10555 10551 10547 10543 10539 10534 10530 10525 10519 10513 10507 10502 10496 10490 10485 10479 10473 10466 10459 10454 10446 10439 10434 10428 10425 10424 10415 10401 10394 10389 10381 10376 10370 10361 10355 10352 10346 10339 10335 10330 10322 10315 10306 10297 10289 10281 10271 10263 10258 10254 10247 10240 10234 10227 10219 10211 10205 10197 10188 10181 10173 10167 10162 10159 10159
10591 10590 10589 10588 10586 10585 10583 10580 10578 10576 10573 10571 10568 10566 10564 10561 10558 10555 10551 10548 10544 10540 10535 10531 10526 10522 10516 10511 10505 10499 10493 10488 10482 10477 10472 10465 10459 10452 10444 10437 10431 10423 10416 10411 10407 10405 10402 10391 10379 10373 10366 10357 10352 10344 10335 10331 10327 10322 10317 10310 10303 10297 10288 10276 10268 10261 10252 10242 10236 10232 10225 10216 10208 10201 10193 10187 10182 10175 10166 10158 10150 10144 10140 10137 10136
10583 10582 10581 10580 10578 10577 10575 10572 10570 10567 10564 10562 10559 10557 10554 10551 10548 10544 10540 10536 10532 10528 10523 10519 10513 10507 10502 10496 10491 10485 10479 10474 10469 10463 10458 10452 10444 10437 10430 10422 10416 10408 10400 10394 10389 10386 10385 10379 10367 10357 10351 10342 10333 10326 10319 10312 10306 10302 10298 10291 10284 10277 10269 10259 10249 10242 10234 10223 10215 10210 10205 10196 10186 10177 10169 10163 10158 10151 10143 10135 10128 10122 10118 10115 10112
10575 10574 10574 10572 10571 10569 10567 10564 10561 10558 10555 10553 10550 10547 10544 10540 10537 10533 10529 10525 10521 10516 10511 10505 10500 10494 10488 10483 10477 10472 10466 10461 10457 10450 10443 10437 10430 10422 10416 10408 10400 10393 10386 10378 10373 10368 10365 10362 10354 10341 10333 10325 10317 10308 10300 10295 10288 10281 10276 10272 10265 10257 10250 10242 10231 10221 10214 10205 10196 10189 10183 10175 10165 10156 10148 10141 10135 10128 10119 10112 10106 10100 10097 10093 10087
10568 10567 10566 10564 10563 10560 10558 10555 10552 10548 10545 10542 10539 10536 10533 10529 10526 10522 10518 10514 10509 10504 10498 10492 10487 10481 10475 10469 10464 10460 10455 10449 10443 10436 10429 10423 10416 10408 10400 10393 10385 10378 10371 10364 10357 10351 10345 10341 10336 10326 10314 10305 10299 10290 10281 10275 10271 10264 10258 10253 10246 10236 10229 10225 10216 10203 10193 10186 10178 10170 10162 10155 10145 10135 10126 10119 10114 10106 10096 10088 10083 10077 10072 10068 10062
10559 10558 10557 10555 10553 10551 10549 10545 10542 10539 10535 10532 10529 10525 10521 10518 10514 10510 10506 10501 10497 10491 10485 10480 10474 10468 10462 10457 10453 10447 10442 10436 10429 10422 10416 10409 10402 10394 10386 10379 10371 10364 10357 10349 10341 10334 10326 10320 10314 10307 10298 10287 10279 10273 10263 10255 10250 10245 10240 10238 10234 10222 10210 10206 10200 10187 10175 10167 10160 10152 10142 10134 10127 10119 10108 10098 10094 10087 10075 10067 10062 10054 10048 10042 10037
10550 10549 10548 10546 10544 10542 10539 10536 10532 10529 10525 10521 10517 10513 10510 10506 10502 10498 10494 10489 10484 10478 10472 10467 10460 10455 10450 10445 10440 10434 10428 10422 10416 10410 10403 10396 10388 10379 10371 10364 10356 10349 10341 10333 10325 10317 10310 10303 10295 10287 10280 10270 10260 10253 10246 10237 10229 10224 10218 10214 10215 10209 10197 10191 10183 10170 10157 10149 10142 10135 10125 10114 10106 10101 10090 10079 10076 10069 10055 10048 10044 10034 10027 10019 10013
10541 10540 10538 10536 10534 10532 10529 10526 10523 10519 10514 10510 10506 10502 10498 10494 10490 10486 10481 10476 10471 10465 10459 10454 10448 10443 10439 10433 10427 10421 10414 10408 10403 10396 10389 10382 10375 10367 10358 10350 10341 10333 10325 10317 10309 10301 10293 10285 10277 10268 10260 10252 10242 10234 10227 10219 10211 10207 10200 10191 10189 10186 10180 10176 10170 10155 10139 10131 10125 10117 10109 10099 10089 10084 10073 10058 10056 10052 10035 10027 10024 10013 10004 9997 9989
10531 10529 10528 10527 10525 10523 10519 10516 10512 10508 10503 10499 10495 10491 10487 10483 10478 10474 10469 10463 10458 10452 10447 10442 10437 10432 10426 10420 10414 10407 10401 10395 10388 10382 10375 10367 10361 10353 10345 10336 10327 10319 10310 10302 10293 10285 10277 10268 10258 10249 10242 10233 10223 10213 10207 10202 10193 10187 10182 10173 10168 10163 10158 10156 10155 10142 10119 10105 10102 10097 10090 10080 10070 10071 10063 10039 10033 10034 10016 10003 9999 9989 9980 9974 9966
10520 10519 10519 10517 10515 10512 10508 10504 10500 10496 10492 10488 10484 10480 10475 10471 10467 10462 10457 10451 10446 10440 10436 10430 10425 10420 10413 10408 10401 10394 10388 10382 10375 10368 10361 10354 10347 10338 10329 10320 10311 10303 10294 10286 10276 10267 10260 10251 10240 10230 10222 10215 10205 10192 10184 10180 10174 10167 10160 10151 10145 10141 10136 10132 10133 10130 10107 10081 10075 10076 10072 10059 10046 10050 10049 10024 10011 10012 9996 9980 9975 9965 9956 9951 9944
10510 10509 10508 10506 10503 10500 10496 10493 10489 10485 10482 10478 10473 10469 10464 10460 10455 10450 10445 10440 10435 10430 10425 10419 10413 10407 10401 10395 10389 10382 10376 10369 10363 10356 10349 10341 10333 10323 10313 10303 10293 10285 10275 10267 10259 10250 10241 10231 10221 10211 10200 10194 10187 10174 10163 10157 10152 10146 10138 10129 10120 10114 10112 10109 10106 10107 10095 10068 10054 10055 10054 10042 10028 10029 10031 10009 9989 9986 9973 9959 9953 9943 9933 9928 9923
10500 10498 10497 10494 10491 10489 10485 10482 10478 10474 10471 10467 10462 10458 10454 10449 10444 10439 10434 10430 10425 10420 10414 10408 10402 10396 10390 10383 10376 10370 10364 10357 10351 10344 10336 10329 10320 10309 10298 10287 10277 10267 10257 10247 10239 10231 10221 10212 10203 10193 10181 10172 10166 10156 10144 10135 10129 10125 10117 10108 10099 10087 10083 10083 10077 10074 10069 10051 10037 10035 10034 10025 10013 10013 10013 9992 9969 9960 9952 9941 9930 9918 9911 9908 9905
10490 10488 10486 10483 10480 10478 10474 10471 10467 10463 10459 10456 10452 10448 10443 10438 10433 10429 10425 10420 10415 10410 10403 10397 10391 10385 10379 10373 10365 10358 10351 10345 10339 10332 10324 10316 10307 10296 10284 10273 10264 10253 10242 10232 10222 10211 10202 10192 10185 10176 10164 10152 10145 10136 10125 10114 10106 10102 10096 10088 10080 10068 10061 10060 10054 10047 10041 10029 10016 10012 10014 10008 9997 9995 9994 9973 9951 9941 9933 9922 9908 9895 9892 9892 9890
10479 10477 10474 10472 10469 10466 10463 10460 10457 10453 10449 10446 10442 10437 10432 10428 10424 10420 10416 10411 10405 10399 10393 10386 10380 10374 10368 10362 10355 10347 10340 10333 10326 10319 10311 10304 10295 10283 10271 10261 10252 10241 10229 10219 10209 10197 10186 10176 10167 10159 10149 10136 10125 10115 10105 10094 10085 10078 10072 10064 10056 10047 10040 10037 10032 10024 10015 10004 9990 9984 9990 9988 9974 9970 9968 9950 9934 9926 9911 9897 9887 9879 9878 9880 9877
10468 10465 10463 10461 10458 10455 10453 10450 10447 10443 10440 10435 10431 10426 10422 10419 10415 10411 10406 10401 10394 10388 10381 10375 10369 10363 10357 10350 10343 10336 10328 10320 10312 10305 10298 10291 10281 10269 10258 10249 10240 10229 10217 10206 10195 10183 10172 10162 10151 10142 10132 10120 10108 10096 10084 10073 10064 10056 10049 10041 10030 10020 10013 10010 10007 9999 9989 9977 9962 9954 9962 9964 9949 9942 9939 9925 9914 9906 9888 9873 9870 9867 9865 9868 9867
10457 10455 10453 10451 10448 10446 10444 10441 10437 10433 10429 10425 10421 10417 10414 10410 10406 10401 10396 10390 10383 10376 10370 10363 10357 10351 10345 10338 10331 10324 10315 10307 10298 10291 10283 10276 10267 10255 10245 10236 10226 10215 10203 10192 10180 10168 10157 10146 10134 10124 10114 10102 10090 10078 10065 10052 10042 10033 10026 10020 10011 9999 9991 9986 9984 9980 9971 9957 9940 9933 9939 9939 9926 9917 9913 9904 9892 9880 9866 9857 9856 9856 9854 9854 9855
10447 10445 10443 10441 10439 10437 10434 10431 10428 10423 10419 10416 10413 10409 10405 10401 10396 10391 10385 10379 10372 10365 10358 10351 10344 10338 10332 10325 10318 10311 10302 10293 10284 10277 10269 10261 10252 10241 10231 10222 10212 10201 10190 10179 10167 10154 10142 10131 10119 10108 10097 10086 10075 10063 10050 10037 10024 10013 10004 9998 9991 9982 9974 9968 9962 9960 9955 9940 9922 9917 9920 9916 9905 9895 9891 9887 9872 9854 9849 9848 9843 9841 9842 9840 9839
10439 10436 10435 10433 10430 10428 10425 10422 10418 10414 10410 10407 10404 10401 10396 10391 10386 10380 10374 10368 10361 10353 10346 10338 10332 10326 10318 10311 10304 10297 10289 10279 10271 10263 10254 10245 10238 10228 10217 10208 10198 10187 10177 10167 10156 10144 10131 10119 10107 10096 10083 10072 10061 10050 10038 10025 10011 9998 9986 9976 9969 9963 9956 9950 9941 9936 9936 9924 9905 9899 9901 9896 9886 9875 9869 9871 9857 9832 9827 9837 9835 9829 9828 9826 9821
10430 10428 10426 10424 10421 10418 10415 10412 10408 10405 10401 10398 10395 10391 10386 10381 10374 10368 10362 10356 10349 10341 10333 10326 10320 10313 10305 10297 10290 10282 10274 10266 10257 10249 10239 10230 10223 10214 10203 10195 10185 10174 10163 10153 10143 10133 10123 10111 10098 10087 10074 10062 10050 10039 10028 10016 10001 9987 9973 9960 9950 9943 9937 9932 9923 9915 9912 9906 9892 9884 9884 9878 9869 9859 9850 9852 9849 9824 9807 9813 9822 9820 9815 9811 9807